When you browse on this site, cookies collect data to enhance your experience and personalize the content and advertising you see.
Visit our Privacy Policy to learn more. By continuing to use the site, you agree to this use of cookies and data.
  • In Netherlands
  • List of Countries
  • For 7 days
  • Water Temperature
  • Satellite Maps
  • Weather Map
  • Weather Widgets
  • user-avatar
    Login

    Hourly Weather Bobo-Dioulasso

    Today, 27 May, Monday

    Time Temperature Precipitation Wind Pressure Humidity
    00:00 +30°C° 0 mm 2 mps 722 mmHg 65%
    01:00 +30°C° 0 mm 3 mps 721 mmHg 67%
    02:00 +29°C° 0 mm 4 mps 721 mmHg 68%
    03:00 +29°C° 0 mm 4 mps 721 mmHg 70%
    04:00 +29°C° 0 mm 4 mps 721 mmHg 72%
    05:00 +28°C° 0 mm 3 mps 721 mmHg 74%
    06:00 +27°C° 0 mm 3 mps 721 mmHg 77%
    07:00 +29°C° 0 mm 3 mps 722 mmHg 73%
    08:00 +30°C° 0 mm 3 mps 722 mmHg 70%
    09:00 +32°C° 0 mm 4 mps 723 mmHg 66%
    10:00 +33°C° 0 mm 3 mps 723 mmHg 61%
    11:00 +35°C° 0 mm 3 mps 723 mmHg 56%
    12:00 +36°C° 0 mm 3 mps 723 mmHg 50%
    13:00 +37°C° 0 mm 3 mps 722 mmHg 47%
    14:00 +38°C° 0 mm 2 mps 721 mmHg 44%
    15:00 +38°C° 0 mm 2 mps 721 mmHg 41%
    16:00 +37°C° 0 mm 2 mps 720 mmHg 44%
    17:00 +37°C° 0 mm 2 mps 720 mmHg 47%
    18:00 +36°C° 0 mm 2 mps 720 mmHg 50%
    19:00 +35°C° 0 mm 2 mps 720 mmHg 53%
    20:00 +34°C° 0 mm 3 mps 720 mmHg 55%
    21:00 +33°C° 0 mm 3 mps 720 mmHg 58%
    22:00 +31°C° 0 mm 3 mps 721 mmHg 61%
    23:00 +32°C° 0 mm 4 mps 721 mmHg 64%

    Tomorrow, 28 May, Tuesday

    Time Temperature Precipitation Wind Pressure Humidity
    00:00 +30°C° 0 mm 5 mps 721 mmHg 67%
    01:00 +29°C° 0.3 mm 5 mps 721 mmHg 69%
    02:00 +29°C° 0.3 mm 5 mps 721 mmHg 71%
    03:00 +28°C° 0.3 mm 5 mps 721 mmHg 73%
    04:00 +27°C° 0.9 mm 5 mps 721 mmHg 75%
    05:00 +27°C° 0.9 mm 4 mps 721 mmHg 76%
    06:00 +26°C° 0.9 mm 4 mps 721 mmHg 77%
    07:00 +27°C° 0.1 mm 4 mps 722 mmHg 75%
    08:00 +28°C° 0.1 mm 4 mps 722 mmHg 72%
    09:00 +29°C° 0.1 mm 4 mps 723 mmHg 70%
    10:00 +30°C° 0 mm 4 mps 723 mmHg 65%
    11:00 +32°C° 0 mm 4 mps 723 mmHg 60%
    12:00 +34°C° 0 mm 4 mps 723 mmHg 55%
    13:00 +34°C° 0 mm 3 mps 722 mmHg 52%
    14:00 +35°C° 0 mm 3 mps 722 mmHg 50%
    15:00 +36°C° 0 mm 3 mps 721 mmHg 48%
    16:00 +35°C° 0 mm 2 mps 721 mmHg 51%
    17:00 +35°C° 0 mm 2 mps 720 mmHg 54%
    18:00 +33°C° 0 mm 1 mps 720 mmHg 57%
    19:00 +32°C° 0 mm 2 mps 721 mmHg 60%
    20:00 +31°C° 0 mm 3 mps 721 mmHg 63%
    21:00 +30°C° 0 mm 3 mps 722 mmHg 65%
    22:00 +30°C° 0.4 mm 3 mps 722 mmHg 67%
    23:00 +29°C° 0.4 mm 4 mps 722 mmHg 69%

    Day after tomorrow, 29 May, Wednesday

    Time Temperature Precipitation Wind Pressure Humidity
    00:00 +28°C° 0.4 mm 4 mps 722 mmHg 71%
    01:00 +28°C° 0 mm 4 mps 721 mmHg 71%
    02:00 +28°C° 0 mm 4 mps 721 mmHg 71%
    03:00 +28°C° 0 mm 4 mps 720 mmHg 71%
    04:00 +27°C° 0 mm 3 mps 721 mmHg 74%
    05:00 +27°C° 0 mm 3 mps 721 mmHg 76%
    06:00 +27°C° 0 mm 3 mps 721 mmHg 79%
    07:00 +28°C° 0 mm 3 mps 721 mmHg 74%
    08:00 +29°C° 0 mm 4 mps 722 mmHg 69%
    09:00 +30°C° 0 mm 4 mps 723 mmHg 65%
    10:00 +33°C° 0 mm 4 mps 722 mmHg 60%
    11:00 +35°C° 0 mm 4 mps 722 mmHg 55%
    12:00 +36°C° 0 mm 4 mps 722 mmHg 50%
    13:00 +37°C° 0 mm 4 mps 721 mmHg 48%
    14:00 +37°C° 0 mm 4 mps 721 mmHg 46%
    15:00 +38°C° 0 mm 3 mps 720 mmHg 45%
    16:00 +37°C° 0 mm 3 mps 719 mmHg 48%
    17:00 +36°C° 0 mm 3 mps 719 mmHg 51%
    18:00 +36°C° 0 mm 3 mps 719 mmHg 54%
    19:00 +35°C° 0 mm 3 mps 720 mmHg 56%
    20:00 +34°C° 0 mm 3 mps 720 mmHg 59%
    21:00 +33°C° 0 mm 3 mps 721 mmHg 61%
    22:00 +31°C° 0 mm 3 mps 721 mmHg 62%
    23:00 +31°C° 0 mm 3 mps 721 mmHg 62%

    30 May, Thursday

    Time Temperature Precipitation Wind Pressure Humidity
    00:00 +32°C° 0 mm 4 mps 721 mmHg 63%
    01:00 +30°C° 0 mm 4 mps 720 mmHg 65%
    02:00 +30°C° 0 mm 4 mps 720 mmHg 66%
    03:00 +30°C° 0 mm 4 mps 719 mmHg 68%
    04:00 +29°C° 0 mm 4 mps 720 mmHg 71%
    05:00 +29°C° 0 mm 4 mps 720 mmHg 74%
    06:00 +28°C° 0 mm 4 mps 720 mmHg 77%
    07:00 +29°C° 0 mm 4 mps 721 mmHg 72%
    08:00 +30°C° 0 mm 4 mps 722 mmHg 67%
    09:00 +32°C° 0 mm 4 mps 722 mmHg 62%
    10:00 +34°C° 0 mm 4 mps 722 mmHg 58%
    11:00 +35°C° 0 mm 4 mps 722 mmHg 54%
    12:00 +36°C° 0 mm 4 mps 722 mmHg 49%
    13:00 +36°C° 0 mm 4 mps 721 mmHg 50%
    14:00 +37°C° 0 mm 4 mps 720 mmHg 50%
    15:00 +37°C° 0 mm 4 mps 719 mmHg 50%
    16:00 +36°C° 0 mm 4 mps 719 mmHg 54%
    17:00 +35°C° 0 mm 3 mps 719 mmHg 58%
    18:00 +34°C° 0 mm 3 mps 719 mmHg 62%
    19:00 +34°C° 0 mm 3 mps 720 mmHg 64%
    20:00 +33°C° 0 mm 4 mps 721 mmHg 67%
    21:00 +32°C° 0 mm 4 mps 722 mmHg 70%
    22:00 +30°C° 0 mm 4 mps 721 mmHg 70%
    23:00 +30°C° 0 mm 4 mps 721 mmHg 71%

    31 May, Friday

    Time Temperature Precipitation Wind Pressure Humidity
    00:00 +29°C° 0 mm 4 mps 721 mmHg 72%
    01:00 +29°C° 0 mm 4 mps 721 mmHg 72%
    02:00 +29°C° 0 mm 4 mps 720 mmHg 72%
    03:00 +28°C° 0 mm 4 mps 720 mmHg 72%
    04:00 +28°C° 0 mm 4 mps 720 mmHg 74%
    05:00 +28°C° 0 mm 4 mps 721 mmHg 75%
    06:00 +28°C° 0 mm 4 mps 721 mmHg 77%
    07:00 +28°C° 0 mm 5 mps 721 mmHg 75%
    08:00 +29°C° 0 mm 5 mps 722 mmHg 73%
    09:00 +30°C° 0 mm 5 mps 722 mmHg 72%
    10:00 +32°C° 0 mm 5 mps 722 mmHg 67%
    11:00 +33°C° 0 mm 5 mps 721 mmHg 63%
    12:00 +34°C° 0 mm 4 mps 721 mmHg 58%
    13:00 +35°C° 0 mm 4 mps 721 mmHg 56%
    14:00 +35°C° 0 mm 3 mps 720 mmHg 53%
    15:00 +36°C° 0 mm 3 mps 720 mmHg 51%
    16:00 +35°C° 0 mm 3 mps 720 mmHg 53%
    17:00 +35°C° 0 mm 3 mps 720 mmHg 55%
    18:00 +34°C° 0 mm 3 mps 720 mmHg 58%
    19:00 +33°C° 0 mm 3 mps 720 mmHg 60%
    20:00 +33°C° 0 mm 3 mps 721 mmHg 62%
    21:00 +31°C° 0 mm 3 mps 722 mmHg 64%
    22:00 +31°C° 0 mm 3 mps 721 mmHg 65%
    23:00 +30°C° 0 mm 3 mps 721 mmHg 65%

    1 June, Saturday

    Time Temperature Precipitation Wind Pressure Humidity
    00:00 +30°C° 0 mm 2 mps 721 mmHg 66%
    01:00 +30°C° 0 mm 3 mps 721 mmHg 68%
    02:00 +29°C° 0 mm 3 mps 721 mmHg 71%
    03:00 +29°C° 0 mm 4 mps 720 mmHg 73%
    04:00 +28°C° 0 mm 4 mps 721 mmHg 74%
    05:00 +28°C° 0 mm 4 mps 721 mmHg 76%
    06:00 +28°C° 0 mm 4 mps 721 mmHg 78%
    07:00 +28°C° 0 mm 4 mps 721 mmHg 75%
    08:00 +29°C° 0 mm 4 mps 722 mmHg 72%
    09:00 +30°C° 0 mm 5 mps 722 mmHg 69%
    10:00 +32°C° 0 mm 4 mps 722 mmHg 64%
    11:00 +34°C° 0 mm 4 mps 722 mmHg 58%
    12:00 +35°C° 0 mm 3 mps 721 mmHg 52%
    13:00 +36°C° 0 mm 2 mps 721 mmHg 50%
    14:00 +36°C° 0 mm 2 mps 720 mmHg 48%
    15:00 +36°C° 0 mm 1 mps 720 mmHg 46%
    16:00 +35°C° 0 mm 1 mps 720 mmHg 48%
    17:00 +35°C° 0 mm 1 mps 720 mmHg 50%
    18:00 +34°C° 0 mm 1 mps 720 mmHg 52%
    19:00 +33°C° 0 mm 1 mps 721 mmHg 54%
    20:00 +34°C° 0 mm 2 mps 721 mmHg 57%
    21:00 +32°C° 0 mm 2 mps 722 mmHg 59%
    22:00 +31°C° 0.1 mm 2 mps 722 mmHg 61%
    23:00 +31°C° 0.1 mm 3 mps 722 mmHg 63%
    Show more